| time (UTC) | temp F | wind direction | speed MPH | gust MPH | rain 1hr in | rain 24hr in | rain mn in | humidity % | barometer mb |
| 20260504002919 | 32 | 244 | 0.0 | 0.0 | 0.00 | 0.00 | 0.00 | 85 | 1016.5 |
| 20260504001956 | 32 | 262 | 0.0 | 0.0 | 0.00 | 0.00 | 0.00 | 86 | 1016.7 |
| 20260504001455 | 32 | 254 | 0.0 | 0.0 | 0.00 | 0.00 | 0.00 | 86 | 1016.7 |
| 20260504000954 | 33 | 254 | 0.0 | 0.0 | 0.00 | 0.00 | 0.00 | 86 | 1016.8 |
| 20260504000454 | 33 | 254 | 0.0 | 0.0 | 0.00 | 0.00 | 0.00 | 86 | 1016.7 |
| 20260503235953 | 33 | 265 | 0.0 | 0.0 | 0.00 | 0.00 | 0.00 | 86 | 1016.7 |
| 20260503235453 | 33 | 265 | 0.0 | 0.0 | 0.00 | 0.00 | 0.00 | 86 | 1016.8 |
| 20260503234955 | 33 | 265 | 0.0 | 0.0 | 0.00 | 0.00 | 0.00 | 86 | 1016.8 |
| 20260503234914 | 33 | 265 | 0.0 | 0.0 | 0.00 | 0.00 | 0.00 | 86 | 1016.8 |
| 20260503234408 | 33 | 265 | 0.0 | 0.0 | 0.00 | 0.00 | 0.00 | 87 | 1016.9 |
| 20260503233453 | 32 | 265 | 0.0 | 0.0 | 0.00 | 0.00 | 0.00 | 87 | 1016.9 |
| 20260503232955 | 33 | 265 | 0.0 | 0.0 | 0.00 | 0.00 | 0.00 | 87 | 1016.9 |
| 20260503232454 | 33 | 265 | 0.0 | 0.0 | 0.00 | 0.00 | 0.00 | 87 | 1016.9 |
| 20260503231953 | 33 | 265 | 0.0 | 0.0 | 0.00 | 0.00 | 0.00 | 88 | 1016.9 |
| 20260503231454 | 33 | 265 | 0.0 | 0.0 | 0.00 | 0.00 | 0.00 | 88 | 1016.9 |
| 20260503230952 | 33 | 265 | 0.0 | 0.0 | 0.00 | 0.00 | 0.00 | 88 | 1016.9 |
| 20260503230915 | 33 | 265 | 0.0 | 0.0 | 0.00 | 0.00 | 0.00 | 88 | 1017.0 |
| 20260503225952 | 34 | 265 | 0.0 | 0.0 | 0.00 | 0.00 | 0.00 | 88 | 1017.0 |
| 20260503225454 | 34 | 265 | 0.0 | 0.0 | 0.00 | 0.00 | 0.00 | 88 | 1017.1 |
| 20260503225409 | 34 | 250 | 0.0 | 0.0 | 0.00 | 0.00 | 0.00 | 88 | 1017.1 |
| 20260503224907 | 34 | 288 | 0.0 | 0.0 | 0.00 | 0.00 | 0.00 | 87 | 1017.1 |
| 20260503223952 | 34 | 285 | 0.0 | 0.0 | 0.00 | 0.00 | 0.00 | 87 | 1017.2 |
| 20260503223452 | 35 | 271 | 0.0 | 0.0 | 0.00 | 0.00 | 0.00 | 87 | 1017.4 |
| 20260503222952 | 34 | 262 | 0.0 | 0.0 | 0.00 | 0.00 | 0.00 | 87 | 1017.4 |
| 20260503222913 | 34 | 269 | 0.0 | 0.0 | 0.00 | 0.00 | 0.00 | 87 | 1017.4 |
| 20260503221952 | 34 | 269 | 0.0 | 0.0 | 0.00 | 0.00 | 0.00 | 88 | 1017.5 |
| 20260503221452 | 34 | 269 | 0.0 | 0.0 | 0.00 | 0.00 | 0.00 | 88 | 1017.6 |
| 20260503221405 | 34 | 269 | 0.0 | 0.0 | 0.00 | 0.00 | 0.00 | 88 | 1017.7 |
| 20260503220451 | 35 | 269 | 0.0 | 0.0 | 0.00 | 0.00 | 0.00 | 88 | 1017.8 |
| 20260503220406 | 35 | 269 | 0.0 | 0.0 | 0.00 | 0.00 | 0.00 | 88 | 1017.9 |
| 20260503215451 | 35 | 269 | 0.0 | 0.0 | 0.00 | 0.00 | 0.00 | 87 | 1018.1 |
| 20260503214952 | 35 | 269 | 0.0 | 0.0 | 0.00 | 0.00 | 0.00 | 87 | 1018.1 |
| 20260503214901 | 36 | 269 | 0.0 | 0.0 | 0.00 | 0.00 | 0.00 | 86 | 1018.2 |
| 20260503213951 | 36 | 269 | 0.0 | 0.0 | 0.00 | 0.00 | 0.00 | 86 | 1018.2 |
| 20260503213453 | 38 | 269 | 0.0 | 2.0 | 0.00 | 0.00 | 0.00 | 85 | 1018.1 |
| 20260503212951 | 38 | 223 | 0.0 | 2.0 | 0.00 | 0.00 | 0.00 | 86 | 1018.1 |
| 20260503212450 | 38 | 262 | 0.0 | 3.0 | 0.00 | 0.00 | 0.00 | 86 | 1018.1 |
| 20260503211950 | 38 | 269 | 0.0 | 3.0 | 0.00 | 0.00 | 0.00 | 86 | 1018.1 |
| 20260503211451 | 38 | 251 | 0.0 | 3.0 | 0.00 | 0.00 | 0.00 | 86 | 1018.2 |
| 20260503210950 | 38 | 212 | 0.0 | 3.0 | 0.00 | 0.00 | 0.00 | 86 | 1018.3 |
| 20260503210451 | 38 | 282 | 0.0 | 1.0 | 0.00 | 0.00 | 0.00 | 86 | 1018.3 |
| 20260503205953 | 38 | 274 | 0.0 | 0.0 | 0.00 | 0.00 | 0.00 | 85 | 1018.5 |
| 20260503205451 | 38 | 262 | 0.0 | 1.0 | 0.00 | 0.00 | 0.00 | 86 | 1018.5 |
| 20260503204951 | 39 | 257 | 0.0 | 1.0 | 0.00 | 0.00 | 0.00 | 85 | 1018.5 |
| 20260503204449 | 39 | 258 | 0.0 | 2.0 | 0.00 | 0.00 | 0.00 | 85 | 1018.6 |
| 20260503204334 | 39 | 258 | 0.0 | 2.0 | 0.00 | 0.00 | 0.00 | 86 | 1018.6 |
| 20260503204138 | 39 | 240 | 0.0 | 2.0 | 0.00 | 0.00 | 0.00 | 86 | 1018.6 |
| 20260503202952 | 38 | 281 | 0.0 | 1.0 | 0.00 | 0.00 | 0.00 | 87 | 1018.6 |
| 20260503202448 | 38 | 251 | 0.0 | 0.0 | 0.00 | 0.00 | 0.00 | 87 | 1018.6 |
| 20260503201950 | 37 | 281 | 0.0 | 0.0 | 0.00 | 0.00 | 0.00 | 87 | 1018.7 |
| 20260503201448 | 37 | 259 | 0.0 | 0.0 | 0.00 | 0.00 | 0.00 | 87 | 1018.8 |
| 20260503200949 | 37 | 258 | 0.0 | 0.0 | 0.00 | 0.00 | 0.00 | 86 | 1018.8 |
| 20260503200450 | 38 | 258 | 0.0 | 0.0 | 0.00 | 0.00 | 0.00 | 86 | 1018.9 |
| 20260503195949 | 38 | 259 | 0.0 | 0.0 | 0.00 | 0.00 | 0.00 | 86 | 1018.9 |
| 20260503195449 | 39 | 259 | 0.0 | 0.0 | 0.00 | 0.00 | 0.00 | 85 | 1018.8 |
| 20260503194948 | 39 | 259 | 0.0 | 0.0 | 0.00 | 0.00 | 0.00 | 84 | 1018.9 |
| 20260503194448 | 40 | 259 | 0.0 | 0.0 | 0.00 | 0.00 | 0.00 | 83 | 1018.8 |
| 20260503193948 | 41 | 262 | 0.0 | 0.0 | 0.00 | 0.00 | 0.00 | 82 | 1018.8 |
| 20260503193448 | 41 | 262 | 0.0 | 0.0 | 0.00 | 0.00 | 0.00 | 83 | 1018.8 |
| 20260503192950 | 40 | 279 | 0.0 | 0.0 | 0.00 | 0.00 | 0.00 | 84 | 1018.8 |
| 20260503192448 | 40 | 276 | 0.0 | 0.0 | 0.00 | 0.00 | 0.00 | 85 | 1018.8 |
| 20260503192327 | 40 | 216 | 0.0 | 0.0 | 0.00 | 0.00 | 0.00 | 83 | 1018.9 |
| 20260503192134 | 40 | 214 | 0.0 | 0.0 | 0.00 | 0.00 | 0.00 | 84 | 1018.9 |
| 20260503190949 | 41 | 216 | 0.0 | 1.0 | 0.00 | 0.00 | 0.00 | 83 | 1018.9 |
| 20260503190448 | 41 | 317 | 0.0 | 1.0 | 0.00 | 0.00 | 0.00 | 83 | 1018.9 |
| 20260503185948 | 41 | 257 | 0.0 | 0.0 | 0.00 | 0.00 | 0.00 | 82 | 1018.9 |
| 20260503185450 | 42 | 257 | 0.0 | 0.0 | 0.00 | 0.00 | 0.00 | 82 | 1018.9 |
| 20260503184947 | 42 | 257 | 0.0 | 0.0 | 0.00 | 0.00 | 0.00 | 81 | 1018.9 |
| 20260503184448 | 42 | 257 | 0.0 | 0.0 | 0.00 | 0.00 | 0.00 | 81 | 1019.0 |
| 20260503183947 | 42 | 257 | 0.0 | 0.0 | 0.00 | 0.00 | 0.00 | 81 | 1018.9 |
| 20260503183449 | 42 | 257 | 0.0 | 0.0 | 0.00 | 0.00 | 0.00 | 80 | 1018.8 |
| 20260503182947 | 43 | 259 | 0.0 | 0.0 | 0.00 | 0.00 | 0.00 | 79 | 1018.8 |
| 20260503182447 | 42 | 303 | 0.0 | 0.0 | 0.00 | 0.00 | 0.00 | 80 | 1018.8 |
| 20260503181947 | 43 | 76 | 0.0 | 0.0 | 0.00 | 0.00 | 0.00 | 80 | 1018.8 |
| 20260503181446 | 43 | 71 | 0.0 | 0.0 | 0.00 | 0.00 | 0.00 | 77 | 1018.8 |
| 20260503180947 | 44 | 71 | 0.0 | 0.0 | 0.00 | 0.00 | 0.00 | 75 | 1018.8 |
| 20260503180445 | 44 | 71 | 0.0 | 0.0 | 0.00 | 0.00 | 0.00 | 73 | 1018.7 |
| 20260503175949 | 45 | 71 | 0.0 | 0.0 | 0.00 | 0.00 | 0.00 | 72 | 1018.7 |
| 20260503175445 | 46 | 71 | 0.0 | 0.0 | 0.00 | 0.00 | 0.00 | 70 | 1018.7 |
| 20260503175405 | 46 | 71 | 0.0 | 0.0 | 0.00 | 0.00 | 0.00 | 68 | 1018.6 |
| 20260503174903 | 47 | 71 | 0.0 | 0.0 | 0.00 | 0.00 | 0.00 | 67 | 1018.6 |
| 20260503173947 | 47 | 71 | 0.0 | 0.0 | 0.00 | 0.00 | 0.00 | 66 | 1018.5 |
| 20260503173444 | 48 | 71 | 0.0 | 0.0 | 0.00 | 0.00 | 0.00 | 64 | 1018.4 |
| 20260503172945 | 49 | 71 | 0.0 | 0.0 | 0.00 | 0.00 | 0.00 | 63 | 1018.4 |
| 20260503172858 | 50 | 71 | 0.0 | 0.0 | 0.00 | 0.00 | 0.00 | 61 | 1018.4 |
| 20260503171945 | 51 | 71 | 0.0 | 0.0 | 0.00 | 0.00 | 0.00 | 60 | 1018.3 |
| 20260503171446 | 52 | 71 | 0.0 | 0.0 | 0.00 | 0.00 | 0.00 | 56 | 1018.3 |
| 20260503171355 | 53 | 71 | 0.0 | 0.0 | 0.00 | 0.00 | 0.00 | 56 | 1018.3 |
| 20260503170447 | 53 | 71 | 0.0 | 0.0 | 0.00 | 0.00 | 0.00 | 54 | 1018.2 |
| 20260503150944 | 59 | 140 | 0.0 | 2.0 | 0.00 | 0.00 | 0.00 | 45 | 1017.7 |
| 20260503150442 | 59 | 144 | 0.0 | 0.0 | 0.00 | 0.00 | 0.00 | 46 | 1017.7 |
| 20260503130939 | 58 | 131 | 0.0 | 1.0 | 0.00 | 0.01 | 0.00 | 42 | 1018.8 |
| 20260503130439 | 58 | 30 | 0.0 | 4.0 | 0.00 | 0.01 | 0.00 | 41 | 1018.8 |
| 20260503110435 | 59 | 121 | 0.0 | 2.0 | 0.00 | 0.04 | 0.00 | 40 | 1020.2 |
| 20260503081432 | 53 | 138 | 0.0 | 12.0 | 0.00 | 0.04 | 0.00 | 45 | 1021.5 |
| 20260503080934 | 53 | 158 | 1.0 | 12.0 | 0.00 | 0.04 | 0.00 | 44 | 1021.5 |
| 20260503080431 | 53 | 116 | 0.0 | 6.0 | 0.00 | 0.04 | 0.00 | 44 | 1021.5 |
| 20260503072931 | 52 | 68 | 1.0 | 9.0 | 0.00 | 0.04 | 0.00 | 46 | 1021.7 |
| 20260503072431 | 51 | 341 | 0.0 | 9.0 | 0.00 | 0.04 | 0.00 | 44 | 1021.6 |
| 20260503071931 | 52 | 66 | 0.0 | 12.0 | 0.00 | 0.04 | 0.00 | 48 | 1021.7 |
| 20260503071432 | 51 | 140 | 0.0 | 13.0 | 0.00 | 0.04 | 0.00 | 47 | 1021.7 |
| 20260503070931 | 52 | 110 | 4.0 | 13.0 | 0.00 | 0.04 | 0.00 | 47 | 1021.6 |
| 20260503070433 | 52 | 140 | 0.0 | 3.0 | 0.00 | 0.04 | 0.00 | 48 | 1021.7 |
| 20260503054930 | 47 | 217 | 0.0 | 0.0 | 0.00 | 0.04 | 0.00 | 70 | 1021.6 |
| 20260503054431 | 47 | 56 | 0.0 | 0.0 | 0.00 | 0.04 | 0.00 | 71 | 1021.6 |
| 20260503054338 | 47 | 55 | 0.0 | 0.0 | 0.00 | 0.04 | 0.00 | 75 | 1021.6 |
| 20260503053525 | 46 | 275 | 0.0 | 0.0 | 0.00 | 0.04 | 0.00 | 77 | 1021.5 |
| 20260503052928 | 45 | 275 | 0.0 | 0.0 | 0.00 | 0.04 | 0.00 | 77 | 1021.6 |
| 20260503052807 | 43 | 275 | 0.0 | 0.0 | 0.00 | 0.04 | 0.00 | 85 | 1021.6 |
| 20260503052612 | 45 | 276 | 0.0 | 0.0 | 0.00 | 0.04 | 0.00 | 80 | 1021.6 |
| 20260503051428 | 41 | 276 | 0.0 | 0.0 | 0.00 | 0.04 | 0.00 | 87 | 1021.6 |
| 20260503050929 | 39 | 276 | 0.0 | 0.0 | 0.00 | 0.04 | 0.00 | 87 | 1021.6 |
| 20260503050429 | 38 | 276 | 0.0 | 0.0 | 0.00 | 0.04 | 0.00 | 88 | 1021.5 |
| 20260503045929 | 38 | 262 | 0.0 | 0.0 | 0.00 | 0.04 | 0.00 | 88 | 1021.5 |
| 20260503045427 | 38 | 262 | 0.0 | 0.0 | 0.00 | 0.04 | 0.00 | 87 | 1021.6 |
| 20260503045342 | 37 | 262 | 0.0 | 0.0 | 0.00 | 0.04 | 0.00 | 85 | 1021.5 |
| 20260503044428 | 35 | 262 | 0.0 | 0.0 | 0.00 | 0.04 | 0.00 | 86 | 1021.5 |
| 20260503043928 | 34 | 255 | 0.0 | 0.0 | 0.00 | 0.04 | 0.00 | 86 | 1021.5 |
| 20260503043429 | 33 | 336 | 0.0 | 0.0 | 0.00 | 0.04 | 0.00 | 85 | 1021.5 |
| 20260503042927 | 33 | 250 | 0.0 | 0.0 | 0.00 | 0.04 | 0.00 | 85 | 1021.5 |
| 20260503042430 | 33 | 250 | 0.0 | 0.0 | 0.00 | 0.04 | 0.00 | 84 | 1021.5 |
| 20260503041928 | 31 | 250 | 0.0 | 0.0 | 0.00 | 0.04 | 0.00 | 85 | 1021.4 |
| 20260503041428 | 30 | 248 | 0.0 | 0.0 | 0.00 | 0.04 | 0.00 | 84 | 1021.4 |
| 20260503040926 | 29 | 248 | 0.0 | 0.0 | 0.00 | 0.04 | 0.00 | 85 | 1021.4 |
| 20260503040847 | 29 | 250 | 0.0 | 0.0 | 0.00 | 0.04 | 0.00 | 85 | 1021.4 |
| 20260503035927 | 29 | 250 | 0.0 | 0.0 | 0.00 | 0.04 | 0.00 | 85 | 1021.3 |
| 20260503035426 | 29 | 248 | 0.0 | 0.0 | 0.00 | 0.04 | 0.00 | 85 | 1021.3 |
| 20260503034926 | 29 | 250 | 0.0 | 0.0 | 0.00 | 0.04 | 0.00 | 85 | 1021.3 |
| 20260503034846 | 29 | 216 | 0.0 | 0.0 | 0.00 | 0.04 | 0.00 | 86 | 1021.2 |
| 20260503034259 | 29 | 262 | 0.0 | 0.0 | 0.00 | 0.04 | 0.00 | 86 | 1021.1 |
| 20260503034112 | 29 | 216 | 0.0 | 0.0 | 0.00 | 0.04 | 0.00 | 85 | 1021.2 |
| 20260503032927 | 29 | 251 | 0.0 | 0.0 | 0.00 | 0.04 | 0.00 | 86 | 1021.0 |
| 20260503032425 | 29 | 251 | 0.0 | 0.0 | 0.00 | 0.04 | 0.00 | 86 | 1021.1 |
| 20260503032344 | 29 | 251 | 0.0 | 0.0 | 0.00 | 0.04 | 0.00 | 87 | 1021.1 |
| 20260503031426 | 29 | 251 | 0.0 | 0.0 | 0.00 | 0.04 | 0.00 | 87 | 1021.0 |
| 20260503030925 | 30 | 251 | 0.0 | 0.0 | 0.00 | 0.04 | 0.00 | 87 | 1021.0 |
| 20260503030426 | 30 | 97 | 0.0 | 0.0 | 0.00 | 0.04 | 0.00 | 87 | 1021.0 |
| 20260503030325 | 31 | 34 | 0.0 | 0.0 | 0.00 | 0.04 | 0.00 | 86 | 1021.0 |
| 20260503025425 | 31 | 271 | 0.0 | 0.0 | 0.00 | 0.04 | 0.00 | 86 | 1020.9 |
| 20260503024925 | 30 | 275 | 0.0 | 2.0 | 0.00 | 0.04 | 0.00 | 86 | 1020.9 |
| 20260503024426 | 30 | 255 | 0.0 | 3.0 | 0.00 | 0.04 | 0.00 | 86 | 1020.9 |
| 20260503023924 | 31 | 241 | 0.0 | 3.0 | 0.00 | 0.04 | 0.00 | 86 | 1020.9 |
| 20260503023425 | 31 | 262 | 0.0 | 3.0 | 0.00 | 0.04 | 0.00 | 86 | 1020.9 |
| 20260503023404 | 31 | 271 | 2.0 | 3.0 | 0.00 | 0.04 | 0.00 | 86 | 1020.9 |
| 20260503022425 | 31 | 265 | 0.0 | 0.0 | 0.00 | 0.04 | 0.00 | 86 | 1020.9 |
| 20260503021926 | 31 | 269 | 0.0 | 0.0 | 0.00 | 0.04 | 0.00 | 86 | 1020.9 |
| 20260503021423 | 31 | 274 | 0.0 | 0.0 | 0.00 | 0.04 | 0.00 | 86 | 1020.9 |
| 20260503020925 | 31 | 257 | 0.0 | 3.0 | 0.00 | 0.04 | 0.00 | 86 | 1020.9 |
| 20260503020424 | 31 | 274 | 0.0 | 5.0 | 0.00 | 0.04 | 0.00 | 86 | 1020.9 |
| 20260503015925 | 32 | 261 | 2.0 | 6.0 | 0.00 | 0.04 | 0.00 | 85 | 1020.9 |
| 20260503015424 | 32 | 275 | 3.0 | 6.0 | 0.00 | 0.04 | 0.00 | 85 | 1020.9 |
| 20260503014923 | 32 | 288 | 3.0 | 6.0 | 0.00 | 0.04 | 0.00 | 84 | 1021.0 |
| 20260503014423 | 32 | 252 | 2.0 | 6.0 | 0.00 | 0.04 | 0.00 | 83 | 1020.9 |
| 20260503013925 | 31 | 251 | 0.0 | 1.0 | 0.00 | 0.04 | 0.00 | 84 | 1020.9 |
| 20260503013423 | 30 | 250 | 0.0 | 0.0 | 0.00 | 0.04 | 0.00 | 85 | 1021.0 |
| 20260503012923 | 31 | 268 | 0.0 | 0.0 | 0.00 | 0.04 | 0.00 | 85 | 1021.0 |
| 20260503012424 | 31 | 261 | 0.0 | 0.0 | 0.00 | 0.04 | 0.00 | 85 | 1021.1 |
| 20260503011925 | 30 | 241 | 0.0 | 0.0 | 0.00 | 0.04 | 0.00 | 86 | 1021.0 |
| 20260503011424 | 30 | 254 | 0.0 | 0.0 | 0.00 | 0.04 | 0.00 | 86 | 1021.0 |
| 20260503010922 | 31 | 250 | 0.0 | 0.0 | 0.00 | 0.04 | 0.00 | 86 | 1021.1 |
| 20260503010423 | 31 | 250 | 0.0 | 0.0 | 0.00 | 0.04 | 0.00 | 86 | 1021.0 |
| 20260503010322 | 31 | 248 | 0.0 | 0.0 | 0.00 | 0.04 | 0.00 | 86 | 1021.0 |
| 20260503005422 | 31 | 250 | 0.0 | 0.0 | 0.00 | 0.04 | 0.00 | 86 | 1021.0 |
| 20260503005304 | 32 | 250 | 0.0 | 0.0 | 0.00 | 0.04 | 0.00 | 87 | 1021.0 |
| 20260503005106 | 32 | 248 | 0.0 | 0.0 | 0.00 | 0.04 | 0.00 | 86 | 1021.0 |
| 20260503003923 | 32 | 250 | 0.0 | 0.0 | 0.00 | 0.04 | 0.00 | 86 | 1021.0 |
| 20260503003839 | 32 | 252 | 0.0 | 0.0 | 0.00 | 0.04 | 0.00 | 86 | 1021.0 |